Tutti
Coldstream Airport (Coldstream, Victoria) YCEM Meteo
|
Coldstream, Victoria (YCEM)
Cielo sereno
Venti leggeri |
|
13 °C |
There is no TAF data available at YCEM or any nearby airports.
Storico METAR YCEM recente
| Date | Time (AEST) | Flight Rules | Wind Dir. | Speed | Type | Height AGL (ft) | Visibility | Temp (°C) | Temp (°F) | Dew Point (°C) | Dew Point (°F) | Rel. Humid. | Pressure | Density Altitude | Remarks |
|---|---|---|---|---|---|---|---|---|---|---|---|---|---|---|---|
| 08-mag | 10:00 | n/a | 250° | 8 kt | Missing | 13° | 55° | 13° | 55° | 100% | 1022 mb | -167 ft | |||
| 08-mag | 09:00 | n/a | 260° | 7 kt | Missing | 13° | 55° | 12° | 53° | 94% | 1022 mb | -167 ft | |||
| 08-mag | 08:00 | n/a | 270° | 7 kt | Missing | 12° | 53° | 12° | 53° | 100% | 1021 mb | -257 ft | |||
| 08-mag | 07:00 | n/a | 250° | 5 kt | Missing | 12° | 53° | 12° | 53° | 100% | 1021 mb | -257 ft | |||
| 08-mag | 06:00 | n/a | 280° | 7 kt | Missing | 13° | 55° | 11° | 51° | 88% | 1020 mb | -108 ft | |||
| 08-mag | 05:00 | n/a | 350° | 1 kt | Missing | 12° | 53° | 11° | 51° | 94% | 1020 mb | -228 ft | |||
| 08-mag | 04:00 | n/a | 310° | 4 kt | Missing | 12° | 53° | 11° | 51° | 94% | 1020 mb | -228 ft | |||
| 08-mag | 03:00 | n/a | 310° | 5 kt | Missing | 12° | 53° | 10° | 50° | 88% | 1020 mb | -228 ft | |||
| 08-mag | 02:00 | n/a | 330° | 5 kt | Missing | 11° | 51° | 10° | 50° | 94% | 1020 mb | -348 ft | |||
| 08-mag | 01:00 | n/a | 10° | 4 kt | Missing | 10° | 50° | 10° | 50° | 100% | 1020 mb | -468 ft | |||
| 08-mag | 00:00 | n/a | 20° | 4 kt | Missing | 10° | 50° | 10° | 50° | 100% | 1021 mb | -497 ft | |||
| 07-mag | 23:00 | n/a | 10° | 4 kt | Missing | 10° | 50° | 9° | 48° | 93% | 1022 mb | -527 ft | |||
| 07-mag | 22:00 | n/a | 360° | 4 kt | Missing | 9° | 48° | 9° | 48° | 100% | 1022 mb | -647 ft | |||
| 07-mag | 21:00 | n/a | 340° | 4 kt | Missing | 9° | 48° | 9° | 48° | 100% | 1022 mb | -647 ft | |||
| 07-mag | 20:00 | n/a | 20° | 3 kt | Missing | 9° | 48° | 8° | 46° | 93% | 1022 mb | -647 ft | |||
| 07-mag | 19:00 | n/a | 50° | 3 kt | Missing | 9° | 48° | 9° | 48° | 100% | 1022 mb | -647 ft | |||
| 07-mag | 18:00 | n/a | 40° | 1 kt | Missing | 9° | 48° | 9° | 48° | 100% | 1022 mb | -647 ft | |||
| 07-mag | 17:00 | n/a | 270° | 4 kt | Missing | 10° | 50° | 8° | 46° | 87% | 1022 mb | -527 ft | |||
| 07-mag | 16:00 | n/a | 240° | 6 kt | Missing | 10° | 50° | 8° | 46° | 87% | 1022 mb | -527 ft | |||
| 07-mag | 15:00 | n/a | 220° | 4 kt | Missing | 10° | 50° | 8° | 46° | 87% | 1022 mb | -527 ft | |||
| 07-mag | 14:00 | n/a | 270° | 7 kt | Missing | 10° | 50° | 9° | 48° | 93% | 1021 mb | -497 ft | |||
| 07-mag | 13:00 | n/a | 300° | 6 kt | Missing | 9° | 48° | 7° | 44° | 87% | 1022 mb | -647 ft | |||
| 07-mag | 12:00 | n/a | 300° | 7 kt | Missing | 7° | 44° | 6° | 42° | 93% | 1022 mb | -887 ft | |||
| 07-mag | 11:00 | n/a | 270° | 8 kt | Missing | 7° | 44° | 6° | 42° | 93% | 1022 mb | -887 ft |
Accedi
| Il tuo browser non è supportato. fai l'upgrade del tuo browser |
